[[{"header":{"parameterUnit":"m.s-1","parameterCategory":1,"la1":30.2992,"la2":30.254,"lo1":-89.0895,"lo2":-89.0443,"dy":0.0025,"dx":0.0025,"nx":19,"ny":19,"refTime":"2026-04-22T21:00:00:Z","depth":0,"parameterNumber":2,"parameterNumberName":"U-component_of_WINDS"},"data":[0,0,0,-4.6061,-4.6064,-4.6236,-4.6237,-4.6471,-4.6473,0,0,0,0,0,0,0,0,0,0,0,-4.6016,-4.6018,-4.606,-4.6065,-4.6236,-4.6237,-4.647,-4.6473,0,0,0,0,0,0,0,0,0,0,0,-4.6016,-4.6018,-4.602,-4.6066,-4.6236,-4.6237,-4.647,-4.6336,0,0,0,0,0,0,0,0,0,0,-4.6167,-4.6132,-4.6017,-4.602,-4.6067,-4.6236,-4.6237,-4.6329,-4.6344,-4.6399,0,-4.6447,0,-4.6464,-4.6489,-4.649,0,0,0,-4.6061,-4.6119,-4.6159,-4.602,-4.6068,-4.6236,-4.6158,-4.6337,-4.6354,-4.6419,-4.645,-4.6458,-4.6467,-4.6491,-4.6492,-4.6816,-4.6817,0,0,-4.6051,-4.6051,-4.6148,-4.6171,-4.6143,-4.6152,-4.6163,-4.6348,-4.6382,-4.6451,-4.6463,-4.6471,-4.6493,-4.6494,-4.6814,-4.6816,0,0,0,-4.6027,-4.6045,-4.608,-4.6161,-4.6191,-4.6157,-4.617,-4.6374,-4.6386,-4.6466,-4.6474,-4.6494,-4.6497,-4.6812,-4.6815,-4.6899,0,0,0,-4.6021,-4.603,-4.6076,-4.6078,-4.6188,-4.6284,-4.6193,-4.6373,-4.6394,-4.6473,-4.6494,-4.6499,-4.681,-4.6813,-4.6893,-4.6939,0,0,0,-4.6003,-4.6028,-4.6055,-4.6078,-4.6151,-4.6281,-4.6303,-4.6377,-4.6399,-4.649,-4.65,-4.6809,-4.6813,-4.6887,-4.693,-4.7025,0,0,0,-4.5984,-4.6128,-4.6056,-4.6221,-4.615,-4.6331,-4.6302,-4.6438,-4.6526,-4.6495,-4.681,-4.6814,-4.6885,-4.6924,-4.7019,-4.7105,-4.7141,0,0,-4.6166,-4.615,-4.6247,-4.6187,-4.6381,-4.6305,-4.6513,-4.6595,-4.6604,-4.6745,-4.6753,-4.6895,-4.6929,-4.7024,-4.734,-4.7368,0,0,0,-4.6304,-4.6374,-4.6425,-4.6508,-4.6573,-4.6634,-4.6683,-4.6714,-4.6833,-4.6676,-4.6954,-4.6975,-4.703,-4.7072,-4.7096,-4.7144,-4.6833,-4.6833,-4.6832,-4.6562,-4.6565,-4.6726,-4.675,-4.6832,-4.6881,-4.6949,-4.6999,-4.6979,-4.7045,-4.7087,-4.7278,-4.7326,-4.7344,-4.7394,-4.7132,-4.7133,-4.7133,-4.7133,-4.6829,-4.6928,-4.6898,-4.7043,-4.7046,-4.7169,-4.7223,-4.7205,-4.7322,-4.7246,-4.7295,-4.7214,-4.7375,-4.7419,-4.7139,-4.7138,-4.7138,-4.7137,-4.7136,-4.6999,-4.7047,-4.7081,-4.7202,-4.7296,-4.7316,-4.7429,-4.7428,-4.7429,-4.7477,-4.7522,-4.7521,-4.752,-4.7499,-4.7499,-4.75,-4.7501,-4.7501,-4.7501,-4.7162,-4.7197,-4.7291,-4.7372,-4.7426,-4.7497,-4.7549,-4.7603,-4.7663,-4.7654,-4.7655,-4.763,-4.739,-4.733,-4.7512,-4.751,-4.7509,-4.7508,-4.7507,-4.7432,-4.7371,-4.7516,-4.757,-4.7666,-4.776,-4.7758,-4.7868,-4.7913,-4.7969,-4.7933,-4.7756,-4.774,-4.7721,-4.7671,-4.7931,-4.7931,-4.7931,-4.7931,-4.7576,-4.7567,-4.7716,-4.7802,-4.7887,-4.79,-4.8066,-4.8109,-4.8144,-4.8173,-4.8135,-4.807,-4.805,-4.8046,-4.802,-4.7974,-4.8304,-4.8305,-4.8305,-4.7743,-4.7743,-4.7883,-4.7914,-4.799,-4.8055,-4.8212,-4.8315,-4.8342,-4.832,-4.8196,-4.818,-4.8074,-4.8039,-4.8014,-4.7973,-4.7888,0,0]},{"header":{"parameterUnit":"m.s-1","parameterCategory":1,"la1":30.2992,"la2":30.254,"lo1":-89.0895,"lo2":-89.0443,"dy":0.0025,"dx":0.0025,"nx":19,"ny":19,"refTime":"2026-04-22T21:00:00:Z","depth":0,"parameterNumber":3,"parameterNumberName":"V-component_of_WINDS"},"data":[0,0,0,0.3034,0.3034,0.3033,0.3033,0.3026,0.3026,0,0,0,0,0,0,0,0,0,0,0,0.3029,0.3029,0.3034,0.3033,0.3033,0.3033,0.3026,0.3026,0,0,0,0,0,0,0,0,0,0,0,0.303,0.3029,0.3029,0.3033,0.3033,0.3033,0.3026,0.3029,0,0,0,0,0,0,0,0,0,0,0.303,0.3022,0.3029,0.3029,0.3033,0.3033,0.3033,0.3029,0.3028,0.3023,0,0.3017,0,0.3021,0.3025,0.3025,0,0,0,0.3037,0.3022,0.3026,0.3029,0.3033,0.3033,0.3034,0.3029,0.3028,0.3022,0.3017,0.3017,0.3021,0.3025,0.3025,0.2983,0.2983,0,0,0.3037,0.3027,0.3027,0.3026,0.3025,0.3034,0.3034,0.3029,0.3022,0.3017,0.3017,0.3021,0.3025,0.3025,0.2983,0.2983,0,0,0,0.3035,0.3027,0.3031,0.3026,0.3026,0.3034,0.3034,0.3022,0.3024,0.3017,0.3021,0.3025,0.3024,0.2984,0.2983,0.2958,0,0,0,0.3035,0.3026,0.3031,0.3025,0.3026,0.3024,0.3028,0.3025,0.3025,0.3021,0.3025,0.3024,0.2984,0.2983,0.2959,0.2947,0,0,0,0.3031,0.3025,0.3024,0.3025,0.3024,0.3025,0.3027,0.3025,0.3027,0.3025,0.3024,0.2984,0.2983,0.296,0.295,0.2934,0,0,0,0.3024,0.3001,0.3023,0.2999,0.3024,0.3009,0.3027,0.3016,0.3011,0.3024,0.2984,0.2983,0.2961,0.2951,0.2935,0.292,0.2912,0,0,0.299,0.2996,0.2983,0.3003,0.2981,0.3009,0.2984,0.2988,0.2997,0.2987,0.2986,0.2959,0.295,0.2934,0.2872,0.2866,0,0,0,0.2969,0.2959,0.2955,0.295,0.2953,0.2955,0.2964,0.2966,0.2958,0.299,0.2949,0.2944,0.2935,0.2928,0.2923,0.2916,0.2979,0.2979,0.2979,0.2907,0.2919,0.2897,0.2909,0.2904,0.2914,0.2911,0.2915,0.2928,0.2918,0.2916,0.2876,0.2867,0.2864,0.2857,0.2908,0.2907,0.2907,0.2907,0.2858,0.2847,0.2865,0.2851,0.2863,0.2851,0.2859,0.2869,0.286,0.2879,0.2872,0.2892,0.2857,0.2851,0.2905,0.2906,0.2906,0.2906,0.2906,0.282,0.2817,0.2819,0.2813,0.2807,0.2819,0.281,0.2821,0.2832,0.2825,0.2824,0.2824,0.2827,0.2823,0.2823,0.2823,0.2823,0.2823,0.2823,0.278,0.2783,0.2774,0.2774,0.2773,0.2772,0.2781,0.278,0.2781,0.279,0.279,0.2805,0.2851,0.2862,0.2821,0.2821,0.2821,0.2822,0.2822,0.2728,0.2741,0.2727,0.2725,0.2727,0.272,0.2735,0.2731,0.2731,0.2726,0.2742,0.2773,0.2781,0.2786,0.2795,0.2739,0.2739,0.2739,0.2739,0.2696,0.2701,0.2689,0.2686,0.2683,0.2695,0.2678,0.2685,0.2694,0.2695,0.2704,0.2718,0.2721,0.2727,0.2733,0.2742,0.2673,0.2673,0.2673,0.2665,0.267,0.2654,0.2663,0.2665,0.2667,0.2651,0.2647,0.2659,0.2671,0.2696,0.2698,0.2721,0.2727,0.274,0.2748,0.2766,0,0]}]]